Regional Weather Roundup
Issued by NWS Glasgow, MT

Home | Current Version | Previous Version | Text Only | Print | Product List | Glossary On
Versions: 1 2 3 4 5 6 7 8 9 10 11 12 13 14 15 16 17 18 19 20 21 22 23 24 25 26 27 28 29 30 31 32 33 34 35 36 37 38 39 40 41 42 43 44 45 46 47 48 49 50
000
ASUS45 KGGW 210415
RWRGGW
HOURLY WEATHER ROUNDUP FOR NORTHEAST MONTANA
NATIONAL WEATHER SERVICE GLASGOW MONTANA
1000 PM MDT MON OCT 20 2014

NOTE: "FAIR" INDICATES FEW OR NO CLOUDS BELOW 12,000 FEET WITH NO
SIGNIFICANT WEATHER AND/OR OBSTRUCTIONS TO VISISBILITY.

NORTHEAST MONTANA


CITY           SKY/WX    TMP DP  RH WIND       PRES   REMARKS
GLASGOW        CLEAR     51  37  58 SE13      29.74F
PLENTYWOOD       N/A     58  40  51 SE5         N/A
WOLF POINT     CLEAR     47  39  74 CALM      29.77S
JORDAN           N/A     56  34  43 CALM      29.77F
WINNETT          N/A     57  32  38 SW2         N/A
SIDNEY         CLEAR     50  39  66 CALM      29.82S
GLENDIVE       CLEAR     54  39  58 SW7       29.83R
MALTA            N/A     51  43  74 E2          N/A
SCOBEY           N/A     51  36  56 CALM      29.77F

FORT PECK REPORTS


CITY           SKY/WX    TMP DP  RH WIND       PRES   REMARKS
FORT PECK        N/A     65  40  39 SE15        N/A
THE PINES        N/A     60  41  49 S5          N/A

SOUTHEAST MONTANA


CITY           SKY/WX    TMP DP  RH WIND       PRES   REMARKS
BILLINGS       CLEAR     62  29  28 SW8       29.81F
MILES CITY     CLEAR     58  39  49 SE9       29.80S
BAKER          CLEAR     48  40  73 SE6       29.86S
LIVINGSTON     CLEAR     67  33  28 W13       29.85F

CENTRAL MONTANA


CITY           SKY/WX    TMP DP  RH WIND       PRES   REMARKS
HAVRE          CLEAR     49  45  86 E3        29.69F
LEWISTOWN      CLEAR     51  34  52 E9        29.80F
GREAT FALLS    CLEAR     66  33  29 S14       29.71F
CUT BANK       CLEAR     53  29  39 S5        29.71F
HELENA         CLEAR     68  33  27 VRB7G25   29.75R
BUTTE          CLEAR     57  31  37 S7        29.86S
BOZEMAN        CLEAR     53  35  50 SE14      29.84S

WESTERN MONTANA


CITY           SKY/WX    TMP DP  RH WIND       PRES   REMARKS
MISSOULA       PTCLDY    51  40  65 CALM      29.72S
KALISPELL      NOT AVBL

NORTH DAKOTA


CITY           SKY/WX    TMP DP  RH WIND       PRES   REMARKS
WILLISTON      CLEAR     60  42  51 S6        29.81F
DICKINSON      CLEAR     52  39  61 SE13      29.85F
MINOT          CLEAR     48  35  60 E8        29.88F
BISMARCK       CLEAR     54  34  46 SE9       29.94F

SOUTHERN SASKATCHEWAN


CITY           SKY/WX    TMP DP  RH WIND       PRES   REMARKS
REGINA         CLEAR     50  43  76 SE13      29.75S
ESTEVAN        NOT AVBL
SWIFT CURRENT  CLEAR     55  43  62 S15       29.69S



USA.gov is the U.S. government's official web portal to all federal, state and local government web resources and services.